星链-3004 (STARLINK-3004 )

导读 | 豆包AI

STARLINK-3004是美国太空探索技术公司(SpaceX)星链(Starlink)卫星互联网星座的成员,于2021年6月30日由美国发射入轨,属于Starlink Group 2-2批次。星链计划旨在构建全球卫星互联网,该卫星承担低轨宽带通信服务,补充覆盖网络,助力实现全球无死角网络接入。

基本信息
目录编号:
48880
目录名称:
STARLINK-3004
国际标识:
2021-059B
轨道中心:
EARTH
卫星名称:
星链-3004
卫星全名:
星链-3004 (STARLINK-3004 )
卫星状态:
在轨 (已飞行1718 天)
发射日期:
2021-06-30 UTC
国别 :
美国 (US)
星等 :
--
轨道信息
数据来源 国际轨道数据
星历时间: 2026-03-14T14:54:33+0800
11小时前
查看轨道信息
半长轴: 6941.131km
偏心率: 0.0002292
轨道倾角: 97.660°
近地点辐角 86.430°
升交点赤经 199.837°
平近点角 273.718°
近地点: 561.403km
远地点: 564.585km
周期: 95.919分钟
每日圈数: 15.012654
详细信息
固有亮度:
5
最大亮度:
2.5
卫星平台:
Starlink v1.5
覆盖范围:
全球
运营商:
太空探索技术公司
运营商所在国:
美国
制造商(研发单位):
太空探索技术公司
制造商所在国:
美国
使用方式:
暂无
卫星简介
星链(Starlink)计划是由太空探索技术公司(SpaceX)提出的一个巨型低轨卫星互联网星座项目,计划在2019年至2024年间在太空搭建由约1.2万颗卫星组成的“星链”网络,其中1584颗将部署在地球上空550千米处的近地轨道,并从2020年开始工作。该卫星仍在工作。
2D轨道图
3D轨道图
轨道高度分析图
轨道倾角分析图
轨道综合分析图
查看轨道综合分析图